This is the latest recevied weather packets stored in our database for station/object SP2JGY-2. If no packets are shown the sender has not sent any weather packets the latest 1 day(s).
| Time | Temp. | Humidity | Pressure | Rain* | Wind** | Luminosity | Snow |
|---|---|---|---|---|---|---|---|
| 1778106362 | 6.67° C | 88% | 1011.4 hPa | - | - | - | - |
| 1778105462 | 6.67° C | 87% | 1011.2 hPa | - | - | - | - |
| 1778100061 | 6.67° C | 88% | 1010.7 hPa | - | - | - | - |
| 1778095562 | 6.67° C | 87% | 1010.2 hPa | - | - | - | - |
| 1778087460 | 6.67° C | 87% | 1009.2 hPa | - | - | - | - |
| 1778084758 | 7.22° C | 87% | 1008.8 hPa | - | - | - | - |
| 1778083858 | 7.22° C | 87% | 1008.9 hPa | - | - | - | - |
| 1778081160 | 7.22° C | 86% | 1008.8 hPa | - | - | - | - |
| 1778078457 | 7.78° C | 85% | 1008.9 hPa | - | - | - | - |
| 1778075756 | 8.33° C | 82% | 1009 hPa | - | - | - | - |
| 1778073056 | 7.78° C | 80% | 1008.8 hPa | - | - | - | - |
| 1778068555 | 8.89° C | 78% | 1008.4 hPa | - | - | - | - |
| 1778067655 | 8.89° C | 77% | 1008.4 hPa | - | - | - | - |
| 1778064054 | 8.89° C | 82% | 1008.4 hPa | - | - | - | - |
| 1778063154 | 8.89° C | 83% | 1008.6 hPa | - | - | - | - |
| 1778062254 | 9.44° C | 81% | 1008.6 hPa | - | - | - | - |
| 1778059553 | 9.44° C | 84% | 1008.9 hPa | - | - | - | - |
| 1778058653 | 9.44° C | 83% | 1008.1 hPa | - | - | - | - |
| 1778057753 | 9.44° C | 85% | 1007.9 hPa | - | - | - | - |
| 1778056853 | 9.44° C | 85% | 1008.1 hPa | - | - | - | - |
| 1778054152 | 9.44° C | 84% | 1008.2 hPa | - | - | - | - |
| 1778053252 | 8.89° C | 85% | 1008.6 hPa | - | - | - | - |
| 1778052352 | 8.89° C | 84% | 1008.9 hPa | - | - | - | - |
| 1778050552 | 8.89° C | 83% | 1008.6 hPa | - | - | - | - |
| 1778046951 | 8.33° C | 83% | 1009.4 hPa | - | - | - | - |
* Rain since midnight (hover to see other rain measurements)
** Current wind speed in m/s (hover to see current wind gust speed)